Lubbock, TX

7:23 PM CST on December 06, 2019 (GMT -0600)
Lubbock International

Weather History for KLBB - May, 2019

Change the Weather History Date:

Friday, May 17, 2019

  Actual Average Record
Temperature  
Mean Temperature 80 °F 70 °F  
Max Temperature 93 °F 84 °F 101 °F (1996)
Min Temperature 66 °F 56 °F 41 °F (1916)
Degree Days  
Heating Degree Days 0 1  
Month to date heating degree days 51 30  
Since 1 July heating degree days 3448 3367  
Cooling Degree Days 14 6  
Month to date cooling degree days 65 78  
Year to date cooling degree days 128 134  
Growing Degree Days 30 (Base 50)    
Moisture  
Dew Point 47 °F    
Average Humidity 48    
Maximum Humidity 87    
Minimum Humidity 7    
Precipitation  
Precipitation 0.00 in 0.08 in 2.28 in (1929)
Month to date precipitation 0.69 1.05  
Year to date precipitation 3.61 4.96  
Snow  
Snow 0.00 in 0.00 in T in (1993)
Month to date snowfall T 0.0  
Since 1 July snowfall 10.1 8.2  
Snow Depth 0.00 in    
Sea Level Pressure  
Sea Level Pressure 29.60 in    
Wind  
Wind Speed 17 mph ()    
Max Wind Speed 33 mph    
Max Gust Speed 43 mph    
Visibility 10.0 miles    
Events      
T = Trace of Precipitation, MM = Missing Value Source: Averaged Metar Reports

Daily Weather History Graph

Daily Weather History Graph

Search for Another Location

Airport or City:

Astronomy

May. 17, 2019 Rise Set
Actual Time 6:45 AM CDT 8:42 PM CDT
Civil Twilight 6:17 AM CDT 9:10 PM CDT
Nautical Twilight 5:44 AM CDT 9:43 PM CDT
Astronomical Twilight 5:08 AM CDT 10:19 PM CDT
Moon 7:38 PM CDT (5/17) 6:09 AM CDT (5/17)
Length of Visible Light 14h 52m
Length of Day
13h 57m
Waxing Gibbous, 98% of the Moon is Illuminated
May 17
Waxing Gibbous
May 18
Full
May 26
Last Quarter
Jun 3
New
Jun 10
First Quarter

Hourly Weather History & Observations

Time (CDT) Temp. Heat Index Dew Point Humidity Pressure Visibility Wind Dir Wind Speed Gust Speed Precip Events Conditions
12:53 AM 69.1 °F - 61.0 °F 75% 29.71 in 10.0 mi SSE 16.1 mph - N/A   Overcast
1:53 AM 69.1 °F - 61.0 °F 75% 29.70 in 10.0 mi South 16.1 mph - N/A   Mostly Cloudy
2:53 AM 68.0 °F - 61.0 °F 78% 29.68 in 10.0 mi South 18.4 mph - N/A   Mostly Cloudy
3:53 AM 66.9 °F - 62.1 °F 84% 29.65 in 10.0 mi South 17.3 mph - N/A   Mostly Cloudy
4:53 AM 66.9 °F - 62.1 °F 84% 29.64 in 10.0 mi South 15.0 mph 24.2 mph N/A   Overcast
5:53 AM 68.0 °F - 62.1 °F 81% 29.64 in 10.0 mi South 18.4 mph 27.6 mph N/A   Overcast
6:53 AM 68.0 °F - 62.1 °F 81% 29.62 in 10.0 mi South 19.6 mph - N/A   Overcast
7:53 AM 68.0 °F - 62.1 °F 81% 29.63 in 9.0 mi South 20.7 mph 35.7 mph N/A   Overcast
8:53 AM 69.1 °F - 63.0 °F 81% 29.64 in 10.0 mi South 23.0 mph 31.1 mph N/A   Overcast
9:27 AM 71.1 °F - 63.0 °F 75% 29.79 in 10.0 mi SSW 18.4 mph 32.2 mph N/A   Overcast
9:53 AM 73.0 °F - 63.0 °F 71% 29.64 in 10.0 mi South 20.7 mph 27.6 mph N/A   Mostly Cloudy
10:53 AM 77.0 °F - 63.0 °F 62% 29.62 in 10.0 mi South 19.6 mph - N/A   Mostly Cloudy
11:53 AM 82.9 °F 82.8 °F 59.0 °F 44% 29.61 in 10.0 mi SW 18.4 mph 27.6 mph N/A   Mostly Cloudy
12:53 PM 89.1 °F - 39.9 °F 18% 29.57 in 10.0 mi SW 26.5 mph 32.2 mph N/A   Mostly Cloudy
1:53 PM 91.0 °F - 26.1 °F 10% 29.55 in 10.0 mi SW 28.8 mph 35.7 mph N/A   Partly Cloudy
2:53 PM 91.9 °F - 21.9 °F 8% 29.53 in 10.0 mi SW 25.3 mph 36.8 mph N/A   Partly Cloudy
3:53 PM 91.9 °F - 24.1 °F 9% 29.52 in 10.0 mi WSW 28.8 mph 36.8 mph N/A   Partly Cloudy
4:53 PM 91.9 °F - 26.1 °F 9% 29.49 in 10.0 mi SW 29.9 mph 36.8 mph N/A   Partly Cloudy
5:53 PM 91.0 °F - 21.0 °F 8% 29.47 in 10.0 mi SW 25.3 mph 35.7 mph N/A   Scattered Clouds
6:53 PM 89.1 °F - 17.1 °F 7% 29.47 in 10.0 mi SW 28.8 mph 40.3 mph N/A   Scattered Clouds
7:53 PM 86.0 °F - 21.9 °F 10% 29.50 in 10.0 mi SW 17.3 mph 33.4 mph N/A   Scattered Clouds
8:53 PM 80.1 °F - 26.1 °F 14% 29.53 in 10.0 mi SW 10.4 mph - N/A   Partly Cloudy
9:53 PM 75.0 °F - 30.9 °F 20% 29.55 in 10.0 mi WSW 5.8 mph - N/A   Mostly Cloudy
10:53 PM 75.9 °F - 55.0 °F 48% 29.57 in 10.0 mi South 17.3 mph - N/A   Scattered Clouds
11:53 PM 73.9 °F - 63.0 °F 68% 29.58 in 10.0 mi SSW 19.6 mph 27.6 mph N/A   Scattered Clouds